Weather History for Brownsville, TX

Change the Weather History Date:

Sunday, February 3, 2013

  Actual Average Record
Temperature  
Mean Temperature 69 °F 63 °F  
Max Temperature 79 °F 72 °F 93 °F (2006)
Min Temperature 58 °F 53 °F 25 °F (1951)
Degree Days  
Heating Degree Days 0 5  
Month to date heating degree days 1 15  
Since 1 July heating degree days 257 414  
Cooling Degree Days 4 2  
Month to date cooling degree days 10 6  
Year to date cooling degree days 84 65  
Growing Degree Days 18 (Base 50)    
Moisture  
Dew Point 56 °F    
Average Humidity 64    
Maximum Humidity 100    
Minimum Humidity 28    
Precipitation  
Precipitation 0.00 in 0.05 in 2.14 in (1993)
Month to date precipitation T 0.15  
Year to date precipitation 1.47 1.42  
Sea Level Pressure  
Sea Level Pressure 30.18 in    
Wind  
Wind Speed 7 mph (East)    
Max Wind Speed 18 mph    
Max Gust Speed 24 mph    
Visibility 10 miles    
Events      
T = Trace of Precipitation, MM = Missing Value Source: NWS Daily Summary

Daily Weather History Graph

Daily Weather History Graph

Search for Another Location

Airport:

Trip Planner

Search our weather history database for the weather conditions in past years. The results will help you decide how hot, cold, wet, or windy it might be!

Date:

Astronomy

Feb. 03, 2013 Rise Set
Actual Time 7:12 AM CST 6:14 PM CST
Civil Twilight 6:48 AM CST 6:38 PM CST
Nautical Twilight 6:21 AM CST 7:06 PM CST
Astronomical Twilight 5:53 AM CST 7:33 PM CST
Moon 12:40 AM CST (2/3) 11:56 AM CST (2/3)
Length of Visible Light 11h 50m
Length of Day
11h 02m
Waning Gibbous, 48% of the Moon is Illuminated
Feb 3
Waning Gibbous
Feb 10
New
Feb 17
First Quarter
Feb 25
Full
Mar 4
Last Quarter

Hourly Weather History & Observations

Time (CST) Temp. Dew Point Humidity Pressure Visibility Wind Dir Wind Speed Gust Speed Precip Events Conditions
12:53 AM 63.0 °F 60.1 °F 90% 30.23 in 10.0 mi East 4.6 mph - N/A   Overcast
1:53 AM 62.1 °F 60.1 °F 93% 30.22 in 10.0 mi East 4.6 mph - N/A   Scattered Clouds
2:53 AM 60.1 °F 59.0 °F 96% 30.22 in 10.0 mi Calm Calm - N/A   Clear
3:53 AM 59.0 °F 57.9 °F 96% 30.22 in 10.0 mi ENE 3.5 mph - N/A   Clear
4:53 AM 61.0 °F 60.1 °F 97% 30.23 in 10.0 mi Calm Calm - N/A   Mostly Cloudy
5:53 AM 61.0 °F 59.0 °F 93% 30.24 in 10.0 mi ENE 3.5 mph - N/A   Scattered Clouds
6:53 AM 60.1 °F 59.0 °F 96% 30.25 in 10.0 mi Calm Calm - N/A   Clear
7:53 AM 59.0 °F 57.9 °F 96% 30.26 in 10.0 mi Calm Calm - N/A   Clear
8:53 AM 68.0 °F 61.0 °F 78% 30.27 in 10.0 mi East 8.1 mph - N/A   Clear
9:53 AM 73.0 °F 57.0 °F 57% 30.27 in 10.0 mi ESE 6.9 mph - N/A   Clear
10:53 AM 77.0 °F 51.1 °F 40% 30.27 in 10.0 mi East 6.9 mph - N/A   Clear
11:53 AM 78.1 °F 46.9 °F 33% 30.24 in 10.0 mi East 11.5 mph - N/A   Clear
12:53 PM 78.1 °F 43.0 °F 29% 30.21 in 10.0 mi East 13.8 mph - N/A   Clear
1:53 PM 77.0 °F 46.9 °F 34% 30.17 in 10.0 mi East 17.3 mph - N/A   Clear
2:53 PM 77.0 °F 51.1 °F 40% 30.15 in 10.0 mi East 10.4 mph 20.7 mph N/A   Clear
3:53 PM 75.0 °F 51.1 °F 43% 30.14 in 10.0 mi East 16.1 mph - N/A   Clear
4:53 PM 72.0 °F 53.1 °F 51% 30.13 in 10.0 mi East 16.1 mph 21.9 mph N/A   Clear
5:53 PM 69.1 °F 57.0 °F 65% 30.12 in 10.0 mi East 12.7 mph 19.6 mph N/A   Clear
6:53 PM 66.0 °F 57.9 °F 75% 30.10 in 10.0 mi East 9.2 mph - N/A   Clear
7:53 PM 64.9 °F 57.9 °F 78% 30.11 in 10.0 mi East 6.9 mph - N/A   Clear
8:53 PM 64.0 °F 57.9 °F 80% 30.11 in 10.0 mi East 5.8 mph - N/A   Clear
9:53 PM 64.0 °F 57.0 °F 78% 30.09 in 10.0 mi ESE 4.6 mph - N/A   Clear
10:53 PM 63.0 °F 57.0 °F 81% 30.07 in 10.0 mi SE 5.8 mph - N/A   Clear
11:53 PM 63.0 °F 57.9 °F 84% 30.04 in 10.0 mi SE 5.8 mph - N/A   Clear